Regional Weather Roundup
Issued by NWS Portland, ME

Current Version | Previous Version | Text Only | Print | Product List | Glossary Off
Versions: 1 2 3 4 5 6 7 8 9 10 11 12 13 14 15 16 17 18 19 20 21 22 23 24 25 26 27 28 29 30 31 32 33 34 35 36 37 38 39 40 41 42 43 44 45 46 47 48 49 50
000 ASUS41 KGYX 290210 RWRGYX WEATHER ROUNDUP FOR MAINE AND NEW HAMPSHIRE NATIONAL WEATHER SERVICE GRAY ME 900 PM EST WED FEB 28 2024 * THESE REPORTS ARE NOT UNDER NWS QUALITY CONTROL AND/OR DO NOT REPORT WEATHER SUCH AS PRECIPITATION AND FOG. MEZ002-005-006-010-012-015-018-020-021-024-026-027-029-290300- MAINE CITY SKY/WX TMP DP RH WIND PRES REMARKS PORTLAND CLOUDY 46 46 100 S20G33 29.37F FOG SANFORD* CLOUDY 52 51 97 S9 29.40F BAR HARBOR LGT RAIN 50 49 96 S28G40 29.47F WISCASSET LGT RAIN 49 48 97 S10G25 29.42F ROCKLAND* LGT RAIN 47 47 100 S20G29 29.43F FOG FRYEBURG* CLOUDY 51 50 96 CALM 29.33F LEWISTONAUBURN CLOUDY 48 48 100 S14G21 29.35F FOG AUGUSTA CLOUDY 49 48 97 S10G33 29.36F WATERVILLE* LGT RAIN 50 50 100 S13G20 29.33F BANGOR LGT RAIN 49 47 93 S22G46 29.40F FOG GREENVILLE N/A 45 44 97 S12G25 29.27F MILLINOCKET CLOUDY 48 47 96 S8G21 29.36F HOULTON LGT RAIN 50 47 89 S17G35 29.35F PRESQUE ISLE LGT RAIN 48 47 96 S18G25 29.32F FRENCHVILLE CLOUDY 46 43 89 S23G41 29.24F CARIBOU RAIN 47 45 93 S18G26 29.30F $$ NHZ002-005-008-009-011-012-014-290300- NEW HAMPSHIRE CITY SKY/WX TMP DP RH WIND PRES REMARKS PORTSMOUTH* LGT RAIN 55 51 86 S15 29.41R ROCHESTER* CLOUDY 56 52 86 S8G20 29.40R NASHUA CLOUDY 55 55 100 S8 29.43R MANCHESTER LGT RAIN 56 51 84 S20G36 29.40R CONCORD LGT RAIN 54 52 93 SW13G25 29.40R LACONIA* LGT RAIN 54 53 97 SW17G23 29.36S BERLIN LGT RAIN 50 44 80 S7 29.27S WHITEFIELD* LGT RAIN 55 48 77 SW9G17 29.27F JAFFREY* LGT RAIN 54 50 86 S20G33 29.41S FOG KEENE* HVY RAIN 53 52 96 W14G24 29.45R FOG LEBANON* LGT RAIN 46 42 86 W20G33 29.42R MT WASHINGTON* LGT RAIN 37 37 100 SW55G68 N/A VSB 0 $$ VTZ005-007-008-290300- VERMONT CITY SKY/WX TMP DP RH WIND PRES REMARKS ST JOHNSBURY* N/A 47 40 76 MISG 29.36R MONTPELIER LGT RAIN 41 36 82 NW20G35 29.44R BURLINGTON LGT RAIN 41 34 76 SW8 29.48R $$ MAZ007-012-024-CTZ003-RIZ002-NYZ038-NYZ072-290300- SOUTHERN NEW ENGLAND AND NY CITY SKY/WX TMP DP RH WIND PRES REMARKS BOSTON CLOUDY 54 51 90 SW24G37 29.48R WORCESTER CLOUDY 52 50 93 SW22G37 29.45F NANTUCKET LGT RAIN 50 50 100 S29G43 29.60F FOG PROVIDENCE CLOUDY 54 52 93 SW20G31 29.55R HARTFORD CLOUDY 52 49 89 S13 29.48F ALBANY FLURRIES 37 32 82 NW12G24 29.67R NEW YORK CITY LGT RAIN 60 53 77 SW20G28 29.56R $$ ANZ081-ANZ082-ANZ150-NHZ014-MEZ023>029-290300- COASTAL MARINE OBSERVATIONS STATION/POSITION TIME TEMP WIND PRES WAVE AIR SEA DIR/SP/G HT/PER (UTC) (F) (DEG/KT/KT) (MB) (FT/S) MOUNT DESERT ROC 0200 46 160/ 38/ 41 998.8F MATINICUS ROCK* 0100 47 180/ 38/ 43 998.9F ISLE OF SHOALS* 0100 49 180/ 31/ 32 996.1F JEFFREYS LEDGE* 0156 40 N/A 9/ 8 CASHES LEDGE BUO 0150 39 190/ 25/ 33 998.4F 13/ 9 $$ .............KEY.............. WCI - WIND CHILL TC - TEMPERATURE IN CELSIUS VSB - VISIBILITY IN MILES HX - HEAT INDEX FAIR- INDICATES FEW OR NO CLOUDS BELOW 12,000 FT, WITH NO SIGNIFICANT WEATHER AND/OR OBSTRUCTIONS TO VISIBILITY.

USA.gov is the U.S. government's official web portal to all federal, state and local government web resources and services.